User: anonymous   Login
Location: Unspecified
(0.0000°N, 0.0000°E)
Time: 20:00:55
(UTC+00:00)
Language:

AEHF 3 (USA 246) - Orbit

View from above orbital plane
View from above orbital plane
View from above satellite
View from above satellite

Ground track
Ground track

The orbit data is extracted from the following two-line orbital elements,

1 39256U 13050A   19287.86174281 -.00000183 +00000-0 +00000-0 0  9991
2 39256 000.9330 321.8654 0001370 005.2855 158.3330 01.00274864021230
Epoch (UTC): 14 October 2019 20:40:54
Eccentricity: 0.0001370
inclination: 0.9330°
perigee height: 35779 km
apogee height: 35791 km
right ascension of ascending node: 321.8654°
argument of perigee: 5.2855°
revolutions per day: 1.00274864
mean anomaly at epoch: 158.3330°
orbit number at epoch: 2123

The dashed part of the orbit path shows where the satellite is in the earth's shadow,  

DLR